Location: Москва
(55.7504°N, 37.6175°E)
Time: 20:09:00
(UTC+03:00)

Nauka - Pass Details

Date: 28 September 2021
Orbit: 417 x 423 km, 51.6° (Epoch: 24 October)

Event Time Altitude Azimuth Distance (km) Brightness Sun altitude
Rises 18:50:32 0° 261° (W) 2,364 ? -6.2°
Reaches altitude 10° 18:52:42 10° 254° (WSW) 1,501 ? -6.5°
Maximum altitude 18:55:53 41° 183° (S) 625 ? -6.9°
Drops below altitude 10° 18:59:05 10° 111° (ESE) 1,503 ? -7.4°
Enters shadow 18:59:13 - 111° (ESE) 1,556 ? -7.4°
